Weather History for El Centro, CA

Change the Weather History Date:

Sunday, June 30, 2013

  Actual Average Record
Temperature  
Mean Temperature 94 °F -  
Max Temperature 111 °F 102 °F 115 °F (2008)
Min Temperature 78 °F 74 °F 66 °F (2011)
Cooling Degree Days 30    
Growing Degree Days 44 (Base 50)    
Moisture  
Dew Point 65 °F    
Average Humidity 44    
Maximum Humidity 65    
Minimum Humidity 18    
Precipitation  
Precipitation 0.00 in - - ()
Sea Level Pressure  
Sea Level Pressure 29.68 in    
Wind  
Wind Speed 5 mph (East)    
Max Wind Speed 12 mph    
Max Gust Speed -    
Visibility 10 miles    
Events      
Averages and records for this station are not official NWS values.
T = Trace of Precipitation, MM = Missing Value Source: NWS Daily Summary

Daily Weather History Graph

Daily Weather History Graph

Search for Another Location

Airport:

Trip Planner

Search our weather history database for the weather conditions in past years. The results will help you decide how hot, cold, wet, or windy it might be!

Date:

Astronomy

Jun. 30, 2013 Rise Set
Actual Time 5:37 AM PDT 7:54 PM PDT
Civil Twilight 5:09 AM PDT 8:23 PM PDT
Nautical Twilight 4:34 AM PDT 8:58 PM PDT
Astronomical Twilight 3:56 AM PDT 9:36 PM PDT
Moon 12:23 AM PDT (6/30) 1:27 PM PDT (6/30)
Length of Visible Light 15h 14m
Length of Day
14h 16m
Last Quarter, 44% of the Moon is Illuminated
Jun 30
Last Quarter
Jul 8
New
Jul 15
First Quarter
Jul 22
Full
Jul 29
Last Quarter

Hourly Weather History & Observations

Time (PDT) Temp. Heat Index Dew Point Humidity Pressure Visibility Wind Dir Wind Speed Gust Speed Precip Events Conditions
12:56 AM 82.9 °F 83.2 °F 60.1 °F 46% 29.69 in 10.0 mi North 5.8 mph - N/A   Mostly Cloudy
1:03 AM 82.4 °F 83.4 °F 62.6 °F 51% 29.64 in 10.0 mi NNE 6.9 mph - N/A   Scattered Clouds
1:56 AM 84.0 °F 84.9 °F 63.0 °F 49% 29.69 in 10.0 mi North 4.6 mph - N/A   Mostly Cloudy
2:12 AM 82.4 °F 83.4 °F 62.6 °F 51% 29.64 in 10.0 mi NE 4.6 mph - N/A   Scattered Clouds
2:21 AM 80.6 °F 81.5 °F 60.8 °F 51% 29.65 in 10.0 mi NNE 3.5 mph - N/A   Mostly Cloudy
2:53 AM 82.4 °F 83.4 °F 62.6 °F 51% 29.64 in 10.0 mi Calm Calm - N/A   Overcast
2:55 AM - - - N/A% - - North - - N/A   Unknown
2:56 AM 82.0 °F 83.1 °F 63.0 °F 52% 29.68 in 10.0 mi NNW 3.5 mph - N/A   Overcast
3:56 AM 82.0 °F 83.8 °F 64.9 °F 56% 29.69 in 10.0 mi Calm Calm - N/A   Overcast
4:53 AM 80.6 °F 82.3 °F 64.4 °F 58% 29.65 in 10.0 mi Calm Calm - N/A   Scattered Clouds
4:56 AM 81.0 °F 82.7 °F 64.9 °F 58% 29.70 in 10.0 mi Calm Calm - N/A   Scattered Clouds
5:08 AM 78.8 °F - 66.2 °F 65% 29.66 in 10.0 mi East 3.5 mph - N/A   Mostly Cloudy
5:56 AM 81.0 °F 83.0 °F 66.0 °F 60% 29.72 in 10.0 mi Calm Calm - N/A   Mostly Cloudy
6:24 AM 82.4 °F 84.6 °F 66.2 °F 58% 29.69 in 10.0 mi East 4.6 mph - N/A   Mostly Cloudy
6:56 AM 82.9 °F 87.0 °F 70.0 °F 65% 29.75 in 10.0 mi Calm Calm - N/A   Overcast
7:56 AM 84.9 °F 90.1 °F 71.1 °F 63% 29.76 in 10.0 mi Calm Calm - N/A   Overcast
8:56 AM 90.0 °F 93.6 °F 68.0 °F 48% 29.76 in 10.0 mi SW 4.6 mph - N/A   Overcast
9:56 AM 93.0 °F 95.0 °F 64.9 °F 39% 29.77 in 10.0 mi NE 3.5 mph - N/A   Overcast
10:56 AM 96.1 °F 99.9 °F 66.9 °F 38% 29.76 in 10.0 mi East 5.8 mph - N/A   Mostly Cloudy
11:03 AM 96.8 °F 100.7 °F 66.2 °F 37% 29.71 in 10.0 mi Variable 4.6 mph - N/A   Scattered Clouds
11:56 AM 99.0 °F 102.9 °F 66.0 °F 34% 29.75 in 10.0 mi East 5.8 mph - N/A   Unknown
12:56 PM 102.9 °F 105.5 °F 63.0 °F 27% 29.73 in 10.0 mi South 5.8 mph - N/A   Unknown
1:56 PM 105.1 °F 107.8 °F 62.1 °F 25% 29.70 in 10.0 mi Calm Calm - N/A   Unknown
2:56 PM 109.0 °F 109.6 °F 57.9 °F 19% 29.68 in 10.0 mi SE 6.9 mph - N/A   Unknown
3:56 PM 111.0 °F 111.8 °F 59.0 °F 18% 29.64 in 10.0 mi Variable 4.6 mph - N/A   Unknown
4:56 PM 111.0 °F 114.6 °F 63.0 °F 21% 29.60 in 10.0 mi Variable 3.5 mph - N/A   Unknown
5:56 PM 109.0 °F 115.9 °F 66.9 °F 26% 29.60 in 10.0 mi SE 11.5 mph - N/A   Unknown
6:56 PM 102.9 °F 109.1 °F 68.0 °F 32% 29.61 in 10.0 mi East 10.4 mph - N/A   Unknown
7:56 PM 99.0 °F 103.5 °F 66.9 °F 35% 29.63 in 10.0 mi SE 11.5 mph - N/A   Unknown
8:56 PM 95.0 °F 97.4 °F 64.9 °F 37% 29.65 in 10.0 mi SSE 11.5 mph - N/A   Unknown
9:56 PM 95.0 °F 96.0 °F 63.0 °F 34% 29.66 in 10.0 mi SSE 6.9 mph - N/A   Unknown
10:56 PM 91.0 °F 93.8 °F 66.0 °F 44% 29.68 in 10.0 mi SE 10.4 mph - N/A   Unknown
11:56 PM 89.1 °F 92.9 °F 68.0 °F 50% 29.69 in 10.0 mi SE 9.2 mph - N/A   Unknown